RYR4KT LDZA-EDLV

Flight info

Callsign RYR4KT
Flight time 1h 42m
Altitude 36000
Route PODET DCT RADLY DCT VATET DCT NEMAL DCT SIMBA DCT EXITI DCT TESDU DCT AMETU T852 EKSAK/N0375F260 T852 KULIX/N0364F240 T852 HMM Z850 EKTOT/N0344F200 Z850 SOBTU SOBTU1W
Aircraft B738/M-SDE2E3FGHIRWXY/LB1

Departure

Time 2026-05-09 14:54
Airport Zagreb Franjo Tuđman International Airport (LDZA)

Arrival

Time 2026-05-09 16:36
Airport Weeze (Niederrhein) Airport (EDLV)
Time Latitude Longitude Altitude Speed Heading
2026-05-09 14:22 45.74285 16.08014 353 ft 0 kts 137°
2026-05-09 14:43 45.74287 16.08012 353 ft 2 kts 137°
2026-05-09 14:43 45.74298 16.07996 353 ft 2 kts 136°
2026-05-09 14:43 45.74309 16.07982 353 ft 2 kts 137°
2026-05-09 14:43 45.74320 16.07967 352 ft 2 kts 137°
2026-05-09 14:44 45.74327 16.07958 352 ft 1 kts 137°
2026-05-09 14:44 45.74336 16.07941 352 ft 2 kts 113°
2026-05-09 14:44 45.74340 16.07921 352 ft 2 kts 94°
2026-05-09 14:44 45.74339 16.07899 352 ft 2 kts 74°
2026-05-09 14:45 45.74333 16.07880 352 ft 2 kts 53°
2026-05-09 14:45 45.74329 16.07872 352 ft 1 kts 43°
2026-05-09 14:45 45.74326 16.07868 352 ft 0 kts 46°
2026-05-09 14:47 45.74331 16.07875 352 ft 2 kts 43°
2026-05-09 14:47 45.74337 16.07883 352 ft 1 kts 37°
2026-05-09 14:48 45.74363 16.07902 352 ft 6 kts 12°
2026-05-09 14:48 45.74420 16.07857 352 ft 12 kts 319°
2026-05-09 14:48 45.74472 16.07787 351 ft 1 kts 316°
2026-05-09 14:48 45.74489 16.07765 351 ft 6 kts 317°
2026-05-09 14:49 45.74532 16.07693 351 ft 12 kts 285°
2026-05-09 14:49 45.74484 16.07564 351 ft 18 kts 227°
2026-05-09 14:49 45.74382 16.07406 351 ft 24 kts 226°
2026-05-09 14:49 45.74258 16.07219 350 ft 27 kts 227°
2026-05-09 14:50 45.74125 16.07019 350 ft 26 kts 226°
2026-05-09 14:50 45.73994 16.06819 350 ft 28 kts 227°
2026-05-09 14:50 45.73869 16.06630 350 ft 26 kts 227°
2026-05-09 14:50 45.73735 16.06427 350 ft 28 kts 227°
2026-05-09 14:51 45.73607 16.06233 351 ft 27 kts 226°
2026-05-09 14:51 45.73477 16.06036 351 ft 26 kts 227°
2026-05-09 14:51 45.73349 16.05842 352 ft 25 kts 226°
2026-05-09 14:51 45.73229 16.05654 352 ft 25 kts 227°
2026-05-09 14:52 45.73134 16.05506 353 ft 12 kts 227°
2026-05-09 14:52 45.73097 16.05400 353 ft 12 kts 272°
2026-05-09 14:52 45.73114 16.05317 353 ft 0 kts 306°
2026-05-09 14:52 45.73115 16.05314 353 ft 1 kts 309°
2026-05-09 14:53 45.73159 16.05269 353 ft 14 kts 340°
2026-05-09 14:53 45.73291 16.05357 353 ft 41 kts 45°
2026-05-09 14:53 45.73645 16.05889 351 ft 103 kts 46°
2026-05-09 14:53 45.74265 16.06831 350 ft 154 kts 46°
2026-05-09 14:54 45.75031 16.07999 758 ft 160 kts 48°
2026-05-09 14:54 45.75793 16.09222 1219 ft 169 kts 47°
2026-05-09 14:54 45.76584 16.10440 1642 ft 171 kts 46°
2026-05-09 14:54 45.77426 16.11731 1907 ft 183 kts 46°
2026-05-09 14:55 45.78339 16.13071 2216 ft 195 kts 44°
2026-05-09 14:55 45.79355 16.14514 2427 ft 213 kts 44°
2026-05-09 14:55 45.80406 16.16055 2846 ft 221 kts 44°
2026-05-09 14:55 45.81678 16.17454 2981 ft 243 kts 24°
2026-05-09 14:56 45.83342 16.18005 3471 ft 248 kts 357°
2026-05-09 14:56 45.85056 16.17470 3756 ft 267 kts 335°
2026-05-09 14:56 45.86596 16.15948 4421 ft 270 kts 319°
2026-05-09 14:56 45.87971 16.14094 5038 ft 274 kts 316°
2026-05-09 14:57 45.89331 16.12191 5657 ft 277 kts 316°
2026-05-09 14:57 45.90722 16.10268 6274 ft 280 kts 317°
2026-05-09 14:57 45.92134 16.08347 6885 ft 282 kts 317°
2026-05-09 14:57 45.93580 16.06396 7525 ft 285 kts 317°
2026-05-09 14:58 45.95040 16.04433 7988 ft 289 kts 317°
2026-05-09 14:58 45.96505 16.02461 8066 ft 290 kts 317°
2026-05-09 14:58 45.97979 16.00475 8065 ft 286 kts 317°
2026-05-09 14:58 45.99439 15.98507 8065 ft 286 kts 317°
2026-05-09 14:59 46.00883 15.96545 8063 ft 287 kts 315°
2026-05-09 14:59 46.02200 15.94364 8146 ft 297 kts 307°
2026-05-09 14:59 46.03391 15.91915 8934 ft 295 kts 304°
2026-05-09 14:59 46.04505 15.89487 9652 ft 296 kts 303°
2026-05-09 15:00 46.05638 15.87017 10326 ft 299 kts 304°
2026-05-09 15:00 46.06834 15.84450 10729 ft 314 kts 304°
2026-05-09 15:00 46.08093 15.81784 11099 ft 329 kts 304°
2026-05-09 15:00 46.09403 15.79025 11585 ft 339 kts 304°
2026-05-09 15:01 46.12096 15.73359 12969 ft 347 kts 304°
2026-05-09 15:01 46.13458 15.70488 13690 ft 350 kts 304°
2026-05-09 15:01 46.14830 15.67591 14433 ft 352 kts 304°
2026-05-09 15:02 46.16302 15.64727 15202 ft 355 kts 309°
2026-05-09 15:02 46.17996 15.62194 15941 ft 357 kts 319°
2026-05-09 15:02 46.20001 15.60035 16678 ft 360 kts 326°
2026-05-09 15:02 46.22126 15.58094 17386 ft 363 kts 328°
2026-05-09 15:03 46.24323 15.56223 18084 ft 366 kts 329°
2026-05-09 15:03 46.26506 15.54395 18759 ft 369 kts 329°
2026-05-09 15:03 46.28739 15.52511 19436 ft 372 kts 328°
2026-05-09 15:03 46.30976 15.50595 20076 ft 374 kts 328°
2026-05-09 15:04 46.33205 15.48666 20689 ft 377 kts 327°
2026-05-09 15:04 46.35472 15.46691 21295 ft 380 kts 327°
2026-05-09 15:06 46.51745 15.32385 25123 ft 401 kts 326°
2026-05-09 15:06 46.54125 15.30283 25613 ft 404 kts 325°
2026-05-09 15:06 46.56573 15.28120 26105 ft 406 kts 325°
2026-05-09 15:06 46.59010 15.25963 26591 ft 409 kts 325°
2026-05-09 15:07 46.61422 15.23827 27100 ft 410 kts 325°
2026-05-09 15:07 46.63882 15.21622 27586 ft 412 kts 323°
2026-05-09 15:07 46.66212 15.19248 28065 ft 412 kts 319°
2026-05-09 15:07 46.68468 15.16670 28508 ft 413 kts 317°
2026-05-09 15:08 46.70694 15.13984 28937 ft 414 kts 316°
2026-05-09 15:08 46.75093 15.08551 29804 ft 418 kts 315°
2026-05-09 15:08 46.77322 15.05798 30238 ft 419 kts 315°
2026-05-09 15:09 46.79539 15.03070 30658 ft 421 kts 315°
2026-05-09 15:10 46.94941 14.84272 34273 ft 406 kts 315°
2026-05-09 15:11 46.97108 14.81623 34718 ft 404 kts 315°
2026-05-09 15:11 46.99244 14.79009 35148 ft 403 kts 315°
2026-05-09 15:11 47.01389 14.76380 35572 ft 401 kts 315°
2026-05-09 15:11 47.03525 14.73760 35871 ft 401 kts 315°
2026-05-09 15:12 47.05671 14.71125 36091 ft 401 kts 315°
2026-05-09 15:12 47.07807 14.68495 36148 ft 404 kts 315°
2026-05-09 15:12 47.12107 14.63201 36155 ft 401 kts 315°
2026-05-09 15:13 47.16372 14.57941 36127 ft 402 kts 315°
2026-05-09 15:13 47.20658 14.52641 36098 ft 402 kts 315°
2026-05-09 15:14 47.24926 14.47354 36070 ft 402 kts 315°
2026-05-09 15:14 47.29228 14.42012 36017 ft 401 kts 315°
2026-05-09 15:15 47.33479 14.36721 35985 ft 401 kts 315°
2026-05-09 15:15 47.37757 14.31390 35946 ft 401 kts 315°
2026-05-09 15:16 47.41978 14.26120 35935 ft 394 kts 314°
2026-05-09 15:16 47.46142 14.20905 35969 ft 392 kts 314°
2026-05-09 15:17 47.50310 14.15665 36055 ft 394 kts 314°
2026-05-09 15:17 47.54494 14.10398 36115 ft 396 kts 314°
2026-05-09 15:18 47.58697 14.05102 36139 ft 396 kts 314°
2026-05-09 15:18 47.62602 13.99447 36138 ft 393 kts 308°
2026-05-09 15:19 47.66223 13.93349 36094 ft 392 kts 307°
2026-05-09 15:19 47.69792 13.87222 36082 ft 393 kts 307°
2026-05-09 15:20 47.75176 13.78062 36130 ft 394 kts 307°
2026-05-09 15:21 47.78819 13.71896 36117 ft 394 kts 307°
2026-05-09 15:21 47.82430 13.65785 36104 ft 394 kts 307°
2026-05-09 15:22 47.86062 13.59628 36091 ft 394 kts 307°
2026-05-09 15:22 47.89666 13.53503 36081 ft 394 kts 307°
2026-05-09 15:23 47.93291 13.47416 36082 ft 394 kts 309°
2026-05-09 15:23 47.97097 13.41540 36088 ft 394 kts 310°
2026-05-09 15:24 48.00952 13.35706 36089 ft 394 kts 310°
2026-05-09 15:24 48.04703 13.29988 36088 ft 394 kts 309°
2026-05-09 15:25 48.08524 13.24113 36083 ft 395 kts 310°
2026-05-09 15:25 48.12340 13.18210 36078 ft 397 kts 310°
2026-05-09 15:26 48.18039 13.09361 36072 ft 397 kts 310°
2026-05-09 15:26 48.21863 13.03425 36068 ft 398 kts 311°
2026-05-09 15:27 48.26023 12.97888 36066 ft 400 kts 317°
2026-05-09 15:27 48.30412 12.92757 36068 ft 401 kts 319°
2026-05-09 15:28 48.34857 12.87645 36068 ft 401 kts 319°
2026-05-09 15:28 48.39265 12.82534 36069 ft 401 kts 319°
2026-05-09 15:29 48.43689 12.77355 36071 ft 401 kts 319°
2026-05-09 15:29 48.48072 12.72195 36074 ft 401 kts 319°
2026-05-09 15:30 48.52451 12.67024 36077 ft 400 kts 319°
2026-05-09 15:30 48.56826 12.61840 36077 ft 400 kts 319°
2026-05-09 15:31 48.61208 12.56633 36075 ft 401 kts 319°
2026-05-09 15:31 48.65589 12.51417 36073 ft 401 kts 319°
2026-05-09 15:32 48.69992 12.46163 36072 ft 401 kts 319°
2026-05-09 15:32 48.74372 12.40925 36072 ft 401 kts 319°
2026-05-09 15:33 48.78715 12.35719 36073 ft 401 kts 319°
2026-05-09 15:33 48.83104 12.30447 36076 ft 401 kts 319°
2026-05-09 15:34 48.87428 12.25241 36076 ft 401 kts 319°
2026-05-09 15:34 48.91779 12.19989 36077 ft 401 kts 319°
2026-05-09 15:35 48.96156 12.14694 36076 ft 401 kts 319°
2026-05-09 15:35 49.00544 12.09374 36075 ft 401 kts 319°
2026-05-09 15:36 49.04892 12.04090 36069 ft 402 kts 319°
2026-05-09 15:36 49.09265 11.98763 36065 ft 402 kts 319°
2026-05-09 15:37 49.13575 11.93502 36069 ft 404 kts 320°
2026-05-09 15:37 49.17943 11.88156 36087 ft 404 kts 320°
2026-05-09 15:38 49.22310 11.82802 36086 ft 403 kts 320°
2026-05-09 15:38 49.26616 11.77509 36078 ft 403 kts 320°
2026-05-09 15:39 49.30991 11.72117 36079 ft 403 kts 320°
2026-05-09 15:39 49.35367 11.66712 36077 ft 404 kts 321°
2026-05-09 15:40 49.39732 11.61309 36068 ft 404 kts 321°
2026-05-09 15:40 49.44120 11.55862 36059 ft 404 kts 321°
2026-05-09 15:41 49.48494 11.50423 36054 ft 405 kts 321°
2026-05-09 15:41 49.52873 11.44964 36049 ft 405 kts 321°
2026-05-09 15:42 49.57201 11.39439 36049 ft 406 kts 318°
2026-05-09 15:42 49.61240 11.33394 36050 ft 406 kts 314°
2026-05-09 15:43 49.65178 11.27164 36053 ft 406 kts 314°
2026-05-09 15:43 49.69076 11.21009 36058 ft 406 kts 314°
2026-05-09 15:44 49.73042 11.14796 36065 ft 405 kts 315°
2026-05-09 15:44 49.77002 11.08611 36068 ft 405 kts 315°
2026-05-09 15:45 49.80960 11.02428 36062 ft 405 kts 315°
2026-05-09 15:45 49.84932 10.96212 36060 ft 405 kts 315°
2026-05-09 15:46 49.88894 10.89998 36064 ft 405 kts 315°
2026-05-09 15:46 49.92854 10.83772 36068 ft 405 kts 315°
2026-05-09 15:47 49.96793 10.77562 36069 ft 405 kts 315°
2026-05-09 15:47 50.00768 10.71281 36068 ft 405 kts 315°
2026-05-09 15:48 50.04701 10.65051 36064 ft 406 kts 315°
2026-05-09 15:48 50.08645 10.58787 36070 ft 406 kts 315°
2026-05-09 15:49 50.12560 10.52555 36077 ft 407 kts 315°
2026-05-09 15:49 50.16471 10.46261 36070 ft 407 kts 313°
2026-05-09 15:50 50.19944 10.39390 36077 ft 408 kts 307°
2026-05-09 15:50 50.23174 10.32258 36079 ft 408 kts 306°
2026-05-09 15:51 50.26434 10.25072 36076 ft 409 kts 307°
2026-05-09 15:51 50.29666 10.18064 36076 ft 409 kts 307°
2026-05-09 15:52 50.34622 10.07420 36080 ft 409 kts 307°
2026-05-09 15:53 50.37976 10.00219 36083 ft 408 kts 307°
2026-05-09 15:53 50.41327 9.93008 36085 ft 408 kts 307°
2026-05-09 15:54 50.44666 9.85802 36094 ft 408 kts 307°
2026-05-09 15:54 50.48002 9.78587 36101 ft 409 kts 307°
2026-05-09 15:55 50.51331 9.71365 36095 ft 408 kts 307°
2026-05-09 15:55 50.54667 9.64110 36092 ft 408 kts 307°
2026-05-09 15:56 50.57980 9.56886 36090 ft 409 kts 307°
2026-05-09 15:56 50.61303 9.49624 36090 ft 409 kts 307°
2026-05-09 15:57 50.64616 9.42361 36092 ft 409 kts 307°
2026-05-09 15:57 50.67950 9.35031 35709 ft 411 kts 307°
2026-05-09 15:57 50.69545 9.31516 35322 ft 409 kts 306°
2026-05-09 15:58 50.71198 9.27866 34917 ft 406 kts 306°
2026-05-09 15:58 50.72764 9.24404 34527 ft 403 kts 306°
2026-05-09 15:58 50.74375 9.20837 34121 ft 400 kts 306°
2026-05-09 15:58 50.75901 9.17456 33598 ft 397 kts 306°
2026-05-09 15:59 50.77492 9.13931 33055 ft 395 kts 306°
2026-05-09 15:59 50.79089 9.10387 32508 ft 392 kts 306°
2026-05-09 15:59 50.80654 9.06904 31984 ft 389 kts 306°
2026-05-09 15:59 50.82185 9.03491 31470 ft 385 kts 306°
2026-05-09 16:00 50.83722 9.00061 30962 ft 382 kts 306°
2026-05-09 16:00 50.84242 8.98899 30793 ft 380 kts 306°
2026-05-09 16:00 50.86765 8.93255 29998 ft 374 kts 306°
2026-05-09 16:00 50.88259 8.89910 29559 ft 370 kts 306°
2026-05-09 16:01 50.89722 8.86628 29126 ft 366 kts 306°
2026-05-09 16:01 50.91177 8.83364 28692 ft 363 kts 306°
2026-05-09 16:01 50.92630 8.80098 28290 ft 360 kts 306°
2026-05-09 16:01 50.94058 8.76885 27978 ft 358 kts 306°
2026-05-09 16:02 50.95490 8.73657 27666 ft 360 kts 305°
2026-05-09 16:02 50.98373 8.67150 27023 ft 354 kts 305°
2026-05-09 16:02 50.99794 8.63967 26659 ft 349 kts 307°
2026-05-09 16:03 51.01290 8.60974 26234 ft 347 kts 312°
2026-05-09 16:03 51.03033 8.58349 26062 ft 344 kts 321°
2026-05-09 16:03 51.04982 8.56050 26044 ft 354 kts 325°
2026-05-09 16:03 51.07032 8.53874 26044 ft 356 kts 327°
2026-05-09 16:04 51.09140 8.51723 26049 ft 356 kts 327°
2026-05-09 16:04 51.11150 8.49689 26057 ft 356 kts 327°
2026-05-09 16:04 51.13234 8.47570 26054 ft 358 kts 327°
2026-05-09 16:04 51.15250 8.45505 26082 ft 359 kts 327°
2026-05-09 16:05 51.17262 8.43431 26076 ft 358 kts 327°
2026-05-09 16:05 51.19340 8.41278 26069 ft 357 kts 327°
2026-05-09 16:05 51.21360 8.39177 26064 ft 357 kts 326°
2026-05-09 16:05 51.23275 8.37179 26048 ft 357 kts 326°
2026-05-09 16:06 51.25382 8.34976 25927 ft 360 kts 326°
2026-05-09 16:06 51.27514 8.32742 25691 ft 356 kts 326°
2026-05-09 16:06 51.29512 8.30647 25347 ft 354 kts 326°
2026-05-09 16:06 51.31479 8.28582 24871 ft 354 kts 326°
2026-05-09 16:07 51.33471 8.26489 24425 ft 352 kts 326°
2026-05-09 16:07 51.35484 8.24371 24079 ft 345 kts 326°
2026-05-09 16:07 51.37485 8.22264 24045 ft 341 kts 326°
2026-05-09 16:07 51.39371 8.20277 24043 ft 348 kts 326°
2026-05-09 16:08 51.41410 8.18126 24060 ft 348 kts 326°
2026-05-09 16:08 51.43428 8.15997 24062 ft 349 kts 326°
2026-05-09 16:08 51.45471 8.13841 24060 ft 349 kts 326°
2026-05-09 16:08 51.47467 8.11731 24082 ft 350 kts 326°
2026-05-09 16:09 51.49522 8.09559 24083 ft 350 kts 326°
2026-05-09 16:09 51.51283 8.07694 24083 ft 349 kts 326°
2026-05-09 16:09 51.53547 8.05294 24082 ft 349 kts 326°
2026-05-09 16:09 51.55529 8.03187 24078 ft 349 kts 326°
2026-05-09 16:10 51.57556 8.01030 24077 ft 349 kts 326°
2026-05-09 16:10 51.59605 7.98846 24076 ft 349 kts 326°
2026-05-09 16:10 51.61616 7.96699 24076 ft 349 kts 326°
2026-05-09 16:10 51.63648 7.94529 24076 ft 350 kts 326°
2026-05-09 16:11 51.65670 7.92367 24075 ft 350 kts 326°
2026-05-09 16:11 51.67724 7.90169 24075 ft 350 kts 326°
2026-05-09 16:11 51.69759 7.87989 24074 ft 350 kts 326°
2026-05-09 16:11 51.71782 7.85820 24075 ft 351 kts 326°
2026-05-09 16:12 51.73819 7.83633 24074 ft 350 kts 326°
2026-05-09 16:12 51.75855 7.81445 24074 ft 350 kts 326°
2026-05-09 16:12 51.77876 7.79270 24074 ft 350 kts 326°
2026-05-09 16:12 51.79910 7.77079 24073 ft 350 kts 326°
2026-05-09 16:13 51.81926 7.74905 24073 ft 350 kts 326°
2026-05-09 16:13 51.83950 7.72631 24072 ft 350 kts 322°
2026-05-09 16:13 51.85825 7.70127 24072 ft 350 kts 316°
2026-05-09 16:13 51.87495 7.67321 24073 ft 349 kts 311°
2026-05-09 16:14 51.89061 7.64313 24074 ft 349 kts 308°
2026-05-09 16:14 51.90580 7.61231 24074 ft 349 kts 308°
2026-05-09 16:14 51.92078 7.58141 23964 ft 348 kts 308°
2026-05-09 16:14 51.93562 7.55081 23590 ft 346 kts 308°
2026-05-09 16:15 51.95060 7.52004 23159 ft 346 kts 308°
2026-05-09 16:15 51.96543 7.48971 22720 ft 345 kts 308°
2026-05-09 16:15 51.98038 7.45920 22267 ft 345 kts 308°
2026-05-09 16:15 51.99521 7.42901 21779 ft 344 kts 308°
2026-05-09 16:16 52.00938 7.39784 21312 ft 341 kts 302°
2026-05-09 16:16 52.02014 7.36359 20866 ft 337 kts 289°
2026-05-09 16:16 52.02557 7.32718 20434 ft 332 kts 276°
2026-05-09 16:16 52.02683 7.29035 20110 ft 327 kts 268°
2026-05-09 16:17 52.02493 7.25420 20074 ft 317 kts 258°
2026-05-09 16:17 52.01929 7.22292 19993 ft 317 kts 247°
2026-05-09 16:17 52.01012 7.19349 20043 ft 322 kts 238°
2026-05-09 16:17 51.99759 7.16338 20075 ft 322 kts 233°
2026-05-09 16:18 51.98387 7.13504 20080 ft 321 kts 231°
2026-05-09 16:18 51.96955 7.10699 20080 ft 320 kts 230°
2026-05-09 16:18 51.95554 7.07921 20080 ft 320 kts 231°
2026-05-09 16:18 51.94154 7.05063 19960 ft 317 kts 232°
2026-05-09 16:19 51.92837 7.02341 19628 ft 315 kts 232°
2026-05-09 16:19 51.91507 6.99578 19233 ft 314 kts 232°
2026-05-09 16:19 51.90167 6.96788 18817 ft 314 kts 232°
2026-05-09 16:19 51.88835 6.94015 18384 ft 313 kts 232°
2026-05-09 16:20 51.87588 6.91188 17975 ft 311 kts 237°
2026-05-09 16:20 51.86518 6.88174 17564 ft 309 kts 242°
2026-05-09 16:20 51.85574 6.85079 17160 ft 306 kts 244°
2026-05-09 16:20 51.84676 6.81958 16746 ft 304 kts 244°
2026-05-09 16:21 51.83782 6.78847 16339 ft 302 kts 244°
2026-05-09 16:21 51.82914 6.75867 15952 ft 299 kts 244°
2026-05-09 16:21 51.82007 6.72797 15548 ft 297 kts 244°
2026-05-09 16:21 51.81109 6.69784 15152 ft 295 kts 243°
2026-05-09 16:22 51.80220 6.66896 14771 ft 292 kts 240°
2026-05-09 16:22 51.79094 6.64211 14384 ft 289 kts 227°
2026-05-09 16:22 51.77584 6.62160 14019 ft 286 kts 213°
2026-05-09 16:22 51.75899 6.60508 13659 ft 283 kts 211°
2026-05-09 16:23 51.74198 6.58934 13288 ft 281 kts 211°
2026-05-09 16:23 51.72529 6.57379 12929 ft 279 kts 211°
2026-05-09 16:23 51.71169 6.56063 12622 ft 278 kts 214°
2026-05-09 16:24 51.68777 6.51428 11914 ft 273 kts 247°
2026-05-09 16:24 51.68118 6.48638 11551 ft 272 kts 249°
2026-05-09 16:24 51.67459 6.45779 11188 ft 271 kts 249°
2026-05-09 16:24 51.66775 6.42953 10827 ft 269 kts 248°
2026-05-09 16:25 51.66087 6.40216 10477 ft 268 kts 247°
2026-05-09 16:25 51.65375 6.37435 10119 ft 267 kts 247°
2026-05-09 16:25 51.64711 6.34859 9951 ft 259 kts 246°
2026-05-09 16:25 51.64032 6.32228 9604 ft 259 kts 246°
2026-05-09 16:26 51.63424 6.29876 9301 ft 258 kts 246°
2026-05-09 16:26 51.62779 6.27378 8989 ft 257 kts 246°
2026-05-09 16:26 51.62103 6.24749 8656 ft 256 kts 246°
2026-05-09 16:26 51.61459 6.22263 8349 ft 255 kts 246°
2026-05-09 16:27 51.60844 6.19712 8033 ft 263 kts 252°
2026-05-09 16:27 51.60602 6.17091 7714 ft 268 kts 274°
2026-05-09 16:27 51.61172 6.14186 7388 ft 267 kts 297°
2026-05-09 16:27 51.62135 6.11620 7028 ft 267 kts 301°
2026-05-09 16:28 51.63106 6.09150 6688 ft 266 kts 301°
2026-05-09 16:28 51.64060 6.06652 6348 ft 265 kts 300°
2026-05-09 16:28 51.65005 6.04113 6005 ft 264 kts 300°
2026-05-09 16:28 51.65942 6.01562 5598 ft 265 kts 300°
2026-05-09 16:29 51.66874 5.99008 5244 ft 265 kts 300°
2026-05-09 16:29 51.67797 5.96477 4909 ft 264 kts 300°
2026-05-09 16:29 51.68682 5.93920 4581 ft 262 kts 295°
2026-05-09 16:29 51.69192 5.91192 4469 ft 249 kts 277°
2026-05-09 16:30 51.69252 5.88459 4394 ft 235 kts 269°
2026-05-09 16:30 51.69045 5.85937 4315 ft 223 kts 252°
2026-05-09 16:30 51.68348 5.83791 4219 ft 212 kts 229°
2026-05-09 16:30 51.67204 5.82505 4002 ft 208 kts 198°
2026-05-09 16:31 51.65871 5.82214 3841 ft 200 kts 181°
2026-05-09 16:31 51.64480 5.82181 3667 ft 192 kts 181°
2026-05-09 16:31 51.63189 5.82136 3520 ft 184 kts 179°
2026-05-09 16:31 51.61969 5.82547 3374 ft 177 kts 148°
2026-05-09 16:32 51.61152 5.83974 3269 ft 177 kts 115°
2026-05-09 16:32 51.60873 5.85224 3149 ft 177 kts 101°
2026-05-09 16:32 51.60773 5.87823 2907 ft 175 kts 90°
2026-05-09 16:32 51.60760 5.89779 2739 ft 174 kts 91°
2026-05-09 16:33 51.60724 5.91749 2561 ft 173 kts 92°
2026-05-09 16:33 51.60683 5.93640 2459 ft 167 kts 92°
2026-05-09 16:33 51.60645 5.95493 2196 ft 160 kts 91°
2026-05-09 16:33 51.60609 5.97241 1938 ft 153 kts 91°
2026-05-09 16:34 51.60574 5.98946 1738 ft 153 kts 91°
2026-05-09 16:34 51.60538 6.00686 1531 ft 152 kts 91°
2026-05-09 16:34 51.60504 6.02341 1334 ft 152 kts 91°
2026-05-09 16:34 51.60468 6.04070 1130 ft 151 kts 91°
2026-05-09 16:35 51.60433 6.05771 928 ft 151 kts 91°
2026-05-09 16:35 51.60397 6.07442 730 ft 151 kts 91°
2026-05-09 16:35 51.60361 6.09153 529 ft 151 kts 90°
2026-05-09 16:35 51.60331 6.10864 338 ft 151 kts 91°
2026-05-09 16:36 51.60286 6.12575 131 ft 152 kts 91°
2026-05-09 16:36 51.60198 6.15448 113 ft 17 kts 163°
2026-05-09 16:37 51.60136 6.15463 113 ft 9 kts 180°
2026-05-09 16:37 51.60092 6.15461 114 ft 3 kts 182°
2026-05-09 16:37 51.60081 6.15460 114 ft 0 kts 182°
2026-05-09 16:37 51.60067 6.15460 114 ft 2 kts 182°
2026-05-09 16:38 51.60050 6.15451 114 ft 2 kts 215°
2026-05-09 16:38 51.60043 6.15442 114 ft 0 kts 220°
2026-05-09 16:38 51.60042 6.15442 114 ft 0 kts 227°
2026-05-09 16:38 51.60041 6.15437 114 ft 0 kts 243°
2026-05-09 16:39 51.60037 6.15423 114 ft 3 kts 249°
2026-05-09 16:39 51.60031 6.15358 114 ft 7 kts 268°
2026-05-09 16:39 51.60032 6.15266 112 ft 9 kts 272°
2026-05-09 16:39 51.60036 6.15153 112 ft 11 kts 274°
2026-05-09 16:40 51.60038 6.15033 111 ft 10 kts 270°
2026-05-09 16:40 51.60038 6.14906 109 ft 5 kts 268°
2026-05-09 16:42 51.60000 6.14808 109 ft 4 kts 142°
2026-05-09 16:42 51.59996 6.14849 109 ft 3 kts 94°
2026-05-09 16:42 51.59995 6.14870 109 ft 0 kts 94°
2026-05-09 16:42 51.59995 6.14873 109 ft 0 kts 93°